Location: Newark
(55.2875°N, 3.1864°W)
Time: 04:38:58
(UTC+00:00)

Envisat - Visible Passes

Search period start: 22 January 2020 00:00
Search period end: 01 February 2020 00:00
Orbit: 764 x 766 km, 98.1° (Epoch: 21 January)

Date Brightness Start Highest point End Pass type
(mag) Time Alt. Az. Time Alt. Az. Time Alt. Az.
22 Jan 4.7 06:22:22 10° NNE 06:27:03 35° E 06:31:42 10° SSE visible
22 Jan 3.0 17:44:02 10° SSE 17:49:08 90° WNW 17:54:16 10° NNW visible
22 Jan 5.8 19:25:31 10° SW 19:28:54 18° W 19:32:18 10° NW visible
23 Jan 5.8 05:46:13 10° NE 05:49:53 19° E 05:53:31 10° SE visible
23 Jan 3.0 07:24:26 10° NNE 07:29:33 83° WNW 07:34:39 10° SSW visible
23 Jan 3.2 17:07:32 10° SE 17:12:25 50° ENE 17:17:21 10° N visible
23 Jan 4.9 18:47:09 10° SSW 18:51:41 32° W 18:56:15 10° NNW visible
24 Jan 6.5 05:12:12 10° ENE 05:12:29 10° E 05:12:46 10° E visible
24 Jan 3.9 06:47:41 10° NNE 06:52:42 54° E 06:57:41 10° S visible
24 Jan 3.7 18:09:39 10° S 18:14:40 59° W 18:19:43 10° NNW visible
24 Jan 6.3 19:53:20 10° W 19:54:49 11° W 19:56:17 10° WNW visible
25 Jan 5.1 06:11:12 10° NNE 06:15:40 30° E 06:20:05 10° SSE visible
25 Jan 3.0 17:32:46 10° SSE 17:37:50 77° ENE 17:42:57 10° NNW visible
25 Jan 5.6 19:13:38 10° SW 19:17:27 21° W 19:21:18 10° NW visible
26 Jan 6.0 05:35:16 10° NE 05:38:25 16° E 05:41:34 10° ESE visible
26 Jan 3.1 07:13:08 10° NNE 07:18:16 84° ESE 07:23:22 10° SSW visible
26 Jan 4.5 18:35:34 10° SSW 18:40:18 38° W 18:45:04 10° NNW visible
27 Jan 4.3 06:36:27 10° NNE 06:41:21 45° E 06:46:13 10° S visible
27 Jan 3.3 17:58:16 10° S 18:03:20 71° WSW 18:08:27 10° NNW visible
27 Jan 6.2 19:40:48 10° WSW 19:43:20 14° W 19:45:52 10° NW visible
28 Jan 5.4 06:00:05 10° NE 06:04:15 25° E 06:08:25 10° SE visible
28 Jan 3.0 17:21:32 10° SSE 17:26:33 64° ENE 17:31:37 10° N visible
28 Jan 5.3 19:01:52 10° SW 19:06:02 25° W 19:10:14 10° NW visible
29 Jan 6.2 05:24:28 10° NE 05:26:57 13° E 05:29:25 10° ESE visible
29 Jan 3.4 07:01:50 10° NNE 07:06:57 70° ESE 07:12:01 10° S visible
29 Jan 4.2 18:24:03 10° S 18:28:56 46° W 18:33:51 10° NNW visible
30 Jan 4.6 06:25:14 10° NNE 06:29:59 38° E 06:34:42 10° SSE visible
30 Jan 3.1 17:46:56 10° SSE 17:52:01 85° WSW 17:57:10 10° NNW visible
30 Jan 6.0 19:28:40 10° SW 19:31:51 16° W 19:35:03 10° NW visible
31 Jan 5.7 05:49:00 10° NE 05:52:50 21° E 05:56:38 10° SE visible
31 Jan 5.0 18:50:10 10° SSW 18:54:37 30° W 18:59:06 10° NNW visible
